{"data":{"norad_id":43074,"intl_designator":"2017-083E","name":"IRIDIUM 151","alt_names":[],"object_type":"PAYLOAD","status":"ACTIVE","operator":null,"country":"US","launch_date":"2017-12-23","launch_site_code":"AFWTR","launch_vehicle":null,"mission":null,"orbit_class":"UNKNOWN","rcs_meters":null,"size_class":null,"mass_kg":null,"dimensions":null,"purposes":["comms"],"wikipedia_slug":null,"has_3d_model":false,"image_url":null,"decayed_at":null,"tle_current":{"epoch":"2026-05-24T23:52:27.067008Z","epoch_age_seconds":69348,"freshness":"FRESH","line1":"1 43074U 17083E   26144.99475772  .00000058  00000+0  13568-4 0  9993","line2":"2 43074  86.3958 331.7593 0002113  89.2360 270.9078 14.34217778440819","mean_motion":14.34217778,"eccentricity":0.0002113,"inclination_deg":86.3958,"raan_deg":331.7593,"arg_perigee_deg":89.236,"mean_anomaly_deg":270.9078,"bstar":1.3568e-5,"rev_number":44081,"period_min":100.40316206428,"perigee_km":776.15503982095,"apogee_km":779.17908261722,"semimajor_km":7155.8040612191,"source":"CELESTRAK","updated_at":"2026-05-25T13:38:14.805516Z"}}}